When you browse on this site, cookies collect data to enhance your experience and personalize the content and advertising you see.
Visit our Privacy Policy to learn more. By continuing to use the site, you agree to this use of cookies and data.
  • In Austria
  • List of Countries
  • For 7 days
  • Water Temperature
  • Weather Map
  • News
  • Weather Widgets
  • user-avatar
    Login

    Hourly Weather Morales

    Today, 26 January, Sunday

    Time Temperature Precipitation Wind Pressure Humidity
    00:00 +16°C° 0.2 mm 0 mps 624 mmHg 97%
    01:00 +16°C° 0.2 mm 0 mps 624 mmHg 97%
    02:00 +16°C° 0.2 mm 0 mps 624 mmHg 97%
    03:00 +16°C° 0.2 mm 0 mps 624 mmHg 98%
    04:00 +16°C° 0.2 mm 0 mps 623 mmHg 98%
    05:00 +16°C° 0.1 mm 0 mps 624 mmHg 97%
    06:00 +16°C° 0.1 mm 0 mps 624 mmHg 97%
    07:00 +16°C° 0.1 mm 0 mps 624 mmHg 97%
    08:00 +18°C° 0.2 mm 0 mps 625 mmHg 91%
    09:00 +19°C° 0.2 mm 0 mps 626 mmHg 86%
    10:00 +21°C° 0.2 mm 0 mps 627 mmHg 80%
    11:00 +23°C° 1 mm 1 mps 626 mmHg 80%
    12:00 +24°C° 1 mm 1 mps 626 mmHg 81%
    13:00 +24°C° 1 mm 1 mps 625 mmHg 82%
    14:00 +23°C° 1.6 mm 1 mps 625 mmHg 84%
    15:00 +23°C° 1.6 mm 1 mps 624 mmHg 86%
    16:00 +22°C° 1.6 mm 1 mps 624 mmHg 89%
    17:00 +21°C° 0.9 mm 1 mps 624 mmHg 91%
    18:00 +20°C° 0.9 mm 1 mps 623 mmHg 94%
    19:00 +17°C° 0.9 mm 0 mps 623 mmHg 97%
    20:00 +16°C° 0.3 mm 0 mps 624 mmHg 97%
    21:00 +16°C° 0.3 mm 0 mps 624 mmHg 97%
    22:00 +16°C° 0.3 mm 0 mps 625 mmHg 97%
    23:00 +16°C° 0.1 mm 0 mps 624 mmHg 97%

    Tomorrow, 27 January, Monday

    Time Temperature Precipitation Wind Pressure Humidity
    00:00 +16°C° 0.1 mm 0 mps 624 mmHg 97%
    01:00 +16°C° 0.1 mm 0 mps 624 mmHg 97%
    02:00 +16°C° 0.2 mm 0 mps 624 mmHg 97%
    03:00 +16°C° 0.2 mm 0 mps 623 mmHg 97%
    04:00 +15°C° 0.2 mm 0 mps 623 mmHg 97%
    05:00 +16°C° 0.1 mm 0 mps 623 mmHg 97%
    06:00 +16°C° 0.1 mm 0 mps 624 mmHg 96%
    07:00 +16°C° 0.1 mm 0 mps 624 mmHg 96%
    08:00 +17°C° 0.3 mm 0 mps 625 mmHg 92%
    09:00 +18°C° 0.3 mm 0 mps 626 mmHg 89%
    10:00 +21°C° 0.3 mm 1 mps 626 mmHg 86%
    11:00 +22°C° 1.3 mm 1 mps 626 mmHg 85%
    12:00 +23°C° 1.3 mm 1 mps 626 mmHg 84%
    13:00 +24°C° 1.3 mm 1 mps 626 mmHg 82%
    14:00 +23°C° 1.5 mm 1 mps 625 mmHg 84%
    15:00 +23°C° 1.5 mm 1 mps 624 mmHg 85%
    16:00 +22°C° 1.5 mm 1 mps 624 mmHg 87%
    17:00 +21°C° 1 mm 1 mps 624 mmHg 90%
    18:00 +20°C° 1 mm 1 mps 624 mmHg 93%
    19:00 +18°C° 1 mm 1 mps 623 mmHg 96%
    20:00 +18°C° 0.3 mm 1 mps 624 mmHg 96%
    21:00 +16°C° 0.3 mm 0 mps 624 mmHg 96%
    22:00 +16°C° 0.3 mm 0 mps 624 mmHg 96%
    23:00 +16°C° 0.1 mm 0 mps 624 mmHg 96%

    Day after tomorrow, 28 January, Tuesday

    Time Temperature Precipitation Wind Pressure Humidity
    00:00 +15°C° 0.1 mm 0 mps 624 mmHg 96%
    01:00 +15°C° 0.1 mm 0 mps 624 mmHg 96%
    02:00 +15°C° 0.1 mm 0 mps 623 mmHg 96%
    03:00 +15°C° 0.1 mm 0 mps 623 mmHg 96%
    04:00 +15°C° 0.1 mm 0 mps 623 mmHg 96%
    05:00 +15°C° 0 mm 0 mps 623 mmHg 96%
    06:00 +16°C° 0 mm 0 mps 624 mmHg 95%
    07:00 +16°C° 0 mm 0 mps 624 mmHg 95%
    08:00 +18°C° 0.1 mm 0 mps 625 mmHg 88%
    09:00 +20°C° 0.1 mm 0 mps 626 mmHg 81%
    10:00 +22°C° 0.1 mm 0 mps 627 mmHg 74%
    11:00 +24°C° 0.3 mm 1 mps 626 mmHg 71%
    12:00 +25°C° 0.3 mm 1 mps 626 mmHg 68%
    13:00 +26°C° 0.3 mm 1 mps 626 mmHg 65%
    14:00 +25°C° 1 mm 1 mps 625 mmHg 72%
    15:00 +23°C° 1 mm 1 mps 624 mmHg 79%
    16:00 +22°C° 1 mm 1 mps 623 mmHg 86%
    17:00 +21°C° 0.6 mm 1 mps 623 mmHg 89%
    18:00 +20°C° 0.6 mm 1 mps 623 mmHg 93%
    19:00 +19°C° 0.6 mm 1 mps 623 mmHg 96%
    20:00 +16°C° 0.1 mm 0 mps 623 mmHg 97%
    21:00 +16°C° 0.1 mm 0 mps 623 mmHg 97%
    22:00 +16°C° 0.1 mm 0 mps 624 mmHg 97%
    23:00 +16°C° 0.1 mm 0 mps 624 mmHg 97%

    29 January, Wednesday

    Time Temperature Precipitation Wind Pressure Humidity
    00:00 +16°C° 0.1 mm 0 mps 623 mmHg 96%
    01:00 +16°C° 0.1 mm 0 mps 623 mmHg 96%
    02:00 +15°C° 0.1 mm 0 mps 623 mmHg 96%
    03:00 +15°C° 0.1 mm 0 mps 623 mmHg 97%
    04:00 +15°C° 0.1 mm 0 mps 622 mmHg 97%
    05:00 +15°C° 0 mm 0 mps 623 mmHg 96%
    06:00 +15°C° 0 mm 0 mps 623 mmHg 96%
    07:00 +16°C° 0 mm 0 mps 624 mmHg 95%
    08:00 +18°C° 0.1 mm 0 mps 625 mmHg 87%
    09:00 +20°C° 0.1 mm 0 mps 626 mmHg 80%
    10:00 +22°C° 0.1 mm 0 mps 627 mmHg 73%
    11:00 +24°C° 0.6 mm 1 mps 626 mmHg 73%
    12:00 +24°C° 0.6 mm 1 mps 625 mmHg 74%
    13:00 +24°C° 0.6 mm 1 mps 625 mmHg 75%
    14:00 +24°C° 1.1 mm 1 mps 624 mmHg 79%
    15:00 +23°C° 1.1 mm 1 mps 623 mmHg 82%
    16:00 +22°C° 1.1 mm 1 mps 623 mmHg 86%
    17:00 +21°C° 0.6 mm 1 mps 622 mmHg 89%
    18:00 +20°C° 0.6 mm 1 mps 622 mmHg 93%
    19:00 +16°C° 0.6 mm 0 mps 622 mmHg 96%
    20:00 +16°C° 0.1 mm 0 mps 623 mmHg 96%
    21:00 +16°C° 0.1 mm 0 mps 623 mmHg 96%
    22:00 +15°C° 0.1 mm 0 mps 623 mmHg 96%
    23:00 +15°C° 0 mm 0 mps 623 mmHg 96%

    30 January, Thursday

    Time Temperature Precipitation Wind Pressure Humidity
    00:00 +15°C° 0 mm 0 mps 622 mmHg 96%
    01:00 +14°C° 0 mm 0 mps 622 mmHg 96%
    02:00 +14°C° 0 mm 0 mps 622 mmHg 96%
    03:00 +14°C° 0 mm 0 mps 622 mmHg 96%
    04:00 +14°C° 0 mm 0 mps 621 mmHg 96%
    05:00 +14°C° 0 mm 0 mps 622 mmHg 95%
    06:00 +14°C° 0 mm 0 mps 622 mmHg 95%
    07:00 +15°C° 0 mm 0 mps 623 mmHg 95%
    08:00 +17°C° 0 mm 0 mps 624 mmHg 85%
    09:00 +22°C° 0 mm 1 mps 625 mmHg 76%
    10:00 +25°C° 0 mm 1 mps 626 mmHg 66%
    11:00 +25°C° 0.2 mm 1 mps 625 mmHg 65%
    12:00 +26°C° 0.2 mm 1 mps 625 mmHg 63%
    13:00 +26°C° 0.2 mm 1 mps 625 mmHg 61%
    14:00 +25°C° 0.9 mm 1 mps 624 mmHg 68%
    15:00 +24°C° 0.9 mm 1 mps 623 mmHg 75%
    16:00 +23°C° 0.9 mm 1 mps 622 mmHg 82%
    17:00 +22°C° 0.7 mm 1 mps 622 mmHg 87%
    18:00 +20°C° 0.7 mm 1 mps 622 mmHg 91%
    19:00 +19°C° 0.7 mm 1 mps 622 mmHg 96%
    20:00 +19°C° 0.1 mm 1 mps 622 mmHg 96%
    21:00 +18°C° 0.1 mm 1 mps 622 mmHg 95%
    22:00 +18°C° 0.1 mm 1 mps 623 mmHg 95%
    23:00 +16°C° 0 mm 1 mps 623 mmHg 95%

    31 January, Friday

    Time Temperature Precipitation Wind Pressure Humidity
    00:00 +16°C° 0 mm 1 mps 622 mmHg 95%
    01:00 +16°C° 0 mm 1 mps 622 mmHg 95%
    02:00 +16°C° 0 mm 1 mps 622 mmHg 95%
    03:00 +16°C° 0 mm 1 mps 621 mmHg 94%
    04:00 +14°C° 0 mm 0 mps 621 mmHg 94%
    05:00 +15°C° 0 mm 0 mps 622 mmHg 94%
    06:00 +15°C° 0 mm 0 mps 622 mmHg 94%
    07:00 +15°C° 0 mm 0 mps 623 mmHg 93%
    08:00 +18°C° 0 mm 0 mps 624 mmHg 83%
    09:00 +21°C° 0 mm 0 mps 625 mmHg 73%
    10:00 +25°C° 0 mm 1 mps 626 mmHg 63%
    11:00 +26°C° 0.2 mm 1 mps 626 mmHg 61%
    12:00 +27°C° 0.2 mm 1 mps 625 mmHg 59%
    13:00 +27°C° 0.2 mm 2 mps 625 mmHg 57%
    14:00 +26°C° 0.8 mm 1 mps 624 mmHg 65%
    15:00 +25°C° 0.8 mm 1 mps 623 mmHg 73%
    16:00 +23°C° 0.8 mm 1 mps 622 mmHg 81%
    17:00 +22°C° 0.4 mm 1 mps 622 mmHg 86%
    18:00 +20°C° 0.4 mm 1 mps 622 mmHg 91%
    19:00 +19°C° 0.4 mm 1 mps 622 mmHg 95%
    20:00 +18°C° 0.1 mm 1 mps 623 mmHg 95%
    21:00 +18°C° 0.1 mm 1 mps 623 mmHg 95%
    22:00 +16°C° 0.1 mm 1 mps 623 mmHg 94%
    23:00 +16°C° 0 mm 1 mps 623 mmHg 94%
    Show more